sat.trackr.live / text

‹ back to catalog

YUNHAI-2 01B

NORAD 43910 · 2018-112B

PAYLOAD ACTIVE UNKNOWN

§ Identity

Operator
Country
PRC
Launch date
2018-12-29
Launch site
JSC
Launch vehicle
Mass (kg)
RCS (m²)

External: N2YO · Heavens-Above · Gunter

§ Orbital elements

Epoch: 2026-05-25T04:28:28.449696Z

Period
100.77 min
Inclination
50.0097°
Eccentricity
0.0004923
Mean motion
14.29004729 rev/d
Perigee alt
791.5 km
Apogee alt
798.6 km
Semi-major
7,173.2 km
B*
1.8342e-4
RAAN
205.4862°
Arg perigee
147.9757°
Mean anomaly
212.1458°
Rev number
38,695

§ Raw data

YUNHAI-2 01B1 43910U 18112B   26145.18644039  .00000306  00000+0  18342-3 0  99922 43910  50.0097 205.4862 0004923 147.9757 212.1458 14.29004729386957

JSON: /api/v1/satellites/43910 · /tle

For live sub-satellite position, see the globe view (requires WebGL).

§ Visibility from observer

Set your observer location to see the next 7 days of passes ≥ 10°. The values pass through the URL so the page stays shareable.

No JS? Fill the form by hand. The geolocation button needs JavaScript.